Weather History for West Palm Beach, FL

Change the Weather History Date:

Saturday, May 4, 2013

  Actual Average Record
Temperature  
Mean Temperature 76 °F 76 °F  
Max Temperature 85 °F 84 °F 94 °F (1915)
Min Temperature 66 °F 69 °F 48 °F (1921)
Degree Days  
Heating Degree Days 0 0  
Month to date heating degree days 0 0  
Since 1 July heating degree days 164 233  
Cooling Degree Days 11 11  
Month to date cooling degree days 40 44  
Year to date cooling degree days 867 739  
Growing Degree Days 25 (Base 50)    
Moisture  
Dew Point 67 °F    
Average Humidity 78    
Maximum Humidity 100    
Minimum Humidity 55    
Precipitation  
Precipitation 0.00 in 0.08 in 2.66 in (1911)
Month to date precipitation 3.80 0.33  
Year to date precipitation 13.08 14.53  
Snow  
Snow 0.00 in - - ()
Month to date snowfall 0.0  
Since 1 July snowfall 0.0  
Snow Depth 0.00 in    
Sea Level Pressure  
Sea Level Pressure 29.73 in    
Wind  
Wind Speed 8 mph (WNW)    
Max Wind Speed 18 mph    
Max Gust Speed 24 mph    
Visibility 10 miles    
Events      
T = Trace of Precipitation, MM = Missing Value Source: NWS Daily Summary

Daily Weather History Graph

Daily Weather History Graph

Search for Another Location

Airport:

Trip Planner

Search our weather history database for the weather conditions in past years. The results will help you decide how hot, cold, wet, or windy it might be!

Date:

Astronomy

May. 04, 2013 Rise Set
Actual Time 6:39 AM EDT 7:54 PM EDT
Civil Twilight 6:15 AM EDT 8:19 PM EDT
Nautical Twilight 5:46 AM EDT 8:48 PM EDT
Astronomical Twilight 5:15 AM EDT 9:18 PM EDT
Moon 3:07 AM EDT (5/4) 3:17 PM EDT (5/4)
Length of Visible Light 14h 04m
Length of Day
13h 14m
Waning Crescent, 27% of the Moon is Illuminated
May 4
Waning Crescent
May 9
New
May 18
First Quarter
May 25
Full
May 31
Last Quarter

Hourly Weather History & Observations

Time (EDT) Temp. Heat Index Dew Point Humidity Pressure Visibility Wind Dir Wind Speed Gust Speed Precip Events Conditions
12:53 AM 69.1 °F - 66.9 °F 93% 29.73 in 10.0 mi West 4.6 mph - N/A   Partly Cloudy
1:53 AM 69.1 °F - 68.0 °F 96% 29.72 in 10.0 mi Calm Calm - N/A   Partly Cloudy
2:53 AM 68.0 °F - 66.9 °F 96% 29.69 in 10.0 mi Calm Calm - N/A   Partly Cloudy
3:53 AM 66.9 °F - 66.9 °F 100% 29.69 in 10.0 mi West 3.5 mph - N/A   Partly Cloudy
4:53 AM 66.9 °F - 66.9 °F 100% 29.70 in 10.0 mi West 4.6 mph - N/A   Partly Cloudy
5:53 AM 66.9 °F - 66.0 °F 97% 29.70 in 10.0 mi Calm Calm - N/A   Partly Cloudy
6:53 AM 66.9 °F - 66.0 °F 97% 29.72 in 10.0 mi Calm Calm - N/A   Partly Cloudy
7:53 AM 69.1 °F - 68.0 °F 96% 29.74 in 10.0 mi West 3.5 mph - N/A   Partly Cloudy
8:27 AM 69.8 °F - 68.0 °F 94% 29.74 in 10.0 mi WNW 5.8 mph - N/A   Mostly Cloudy
8:53 AM 71.1 °F - 69.1 °F 93% 29.74 in 10.0 mi WNW 5.8 mph - N/A   Mostly Cloudy
9:53 AM 73.9 °F - 69.1 °F 85% 29.75 in 10.0 mi WNW 10.4 mph 17.3 mph N/A   Mostly Cloudy
10:53 AM 75.9 °F - 66.9 °F 74% 29.76 in 10.0 mi WNW 9.2 mph - N/A   Mostly Cloudy
11:53 AM 78.1 °F - 66.9 °F 68% 29.76 in 10.0 mi WNW 10.4 mph 18.4 mph N/A   Mostly Cloudy
12:53 PM 79.0 °F - 64.9 °F 62% 29.75 in 10.0 mi WNW 16.1 mph 21.9 mph N/A   Mostly Cloudy
1:07 PM 80.6 °F 82.7 °F 66.2 °F 61% 29.74 in 10.0 mi WNW 11.5 mph - N/A   Scattered Clouds
1:53 PM 81.0 °F 83.0 °F 66.0 °F 60% 29.73 in 10.0 mi West 9.2 mph - N/A   Mostly Cloudy
2:53 PM 82.0 °F 84.5 °F 66.9 °F 60% 29.71 in 10.0 mi WNW 10.4 mph - N/A   Scattered Clouds
3:53 PM 82.9 °F 85.0 °F 66.0 °F 56% 29.70 in 10.0 mi WNW 12.7 mph - N/A   Mostly Cloudy
4:53 PM 84.0 °F 86.5 °F 66.9 °F 56% 29.70 in 10.0 mi WNW 8.1 mph 19.6 mph N/A   Mostly Cloudy
5:53 PM 82.9 °F 84.6 °F 64.9 °F 54% 29.70 in 10.0 mi WNW 10.4 mph - N/A   Mostly Cloudy
6:53 PM 82.0 °F 83.8 °F 64.9 °F 56% 29.70 in 10.0 mi West 13.8 mph 20.7 mph N/A   Scattered Clouds
7:53 PM 78.1 °F - 66.0 °F 66% 29.72 in 10.0 mi West 9.2 mph - N/A   Scattered Clouds
8:53 PM 75.9 °F - 66.0 °F 71% 29.75 in 10.0 mi West 10.4 mph - N/A   Scattered Clouds
9:53 PM 75.0 °F - 64.9 °F 71% 29.76 in 10.0 mi West 8.1 mph - N/A   Partly Cloudy
10:53 PM 73.0 °F - 64.9 °F 76% 29.78 in 10.0 mi West 10.4 mph - N/A   Partly Cloudy
11:53 PM 71.1 °F - 64.9 °F 81% 29.80 in 10.0 mi West 8.1 mph - N/A   Partly Cloudy